Location: Observatory
(52.1446°N, 0.4624°W)
Time: 00:05:30
(UTC+01:00)

ISS - Pass Details

Date: 22 May 2019
Orbit: 408 x 418 km, 51.6° (Epoch: 19 June)

Event Time Altitude Azimuth Distance (km) Brightness Sun altitude
Rises 01:36:01 0° 282° (WNW) 2,367 0.1 -17.1°
Reaches altitude 10° 01:38:10 10° 276° (W) 1,503 -1.0 -17.0°
Enters shadow 01:40:40 37° 239° (WSW) 670 -3.1 -17.0°
